Theta_e
325 324 325 328 330 330 330 327 325 325 324 324 324 323 321 321 321 321 323 315 321 330 332 332 330 328 325 322 320 318 317 315 313 312 311 311 310 310 310 309 310 310 310
324 324 325 326 327 329 328 325 323 322 323 322 321 320 320 320 319 319 319 320 318 323 328 332 332 331 329 324 323 321 319 317 315 313 312 311 310 310 310 310 310 310 310
324 324 324 324 325 327 326 323 320 320 320 320 320 318 318 318 317 316 317 318 318 316 321 327 331 331 330 327 324 323 321 319 317 315 313 312 311 311 310 310 310 310 310
324 322 322 323 324 325 324 321 318 317 317 317 317 316 316 315 315 314 314 314 314 315 316 319 325 329 330 329 326 324 323 321 319 317 315 313 312 311 311 310 310 310 310
322 322 322 322 322 324 322 319 316 315 314 314 314 313 313 313 312 311 311 311 311 312 313 312 311 316 326 327 325 324 324 323 320 318 315 314 313 312 311 311 311 311 311
322 321 321 321 321 322 321 318 316 313 313 313 311 307 307 310 310 310 310 310 309 309 309 308 310 310 309 321 324 324 324 323 322 319 316 314 313 312 312 311 311 311 311
322 321 321 320 321 320 320 318 315 311 308 308 306 302 303 304 305 307 309 309 307 307 307 306 307 307 307 311 317 320 322 323 322 319 317 315 314 313 312 312 312 312 312
322 321 321 320 320 320 318 317 314 308 308 306 308 303 304 305 301 302 305 305 306 305 304 303 303 303 303 302 302 310 315 318 318 317 316 315 314 313 313 312 312 312 312
323 322 322 321 320 320 318 317 316 312 308 303 303 308 299 302 298 298 299 301 302 301 303 301 300 299 299 298 299 301 304 307 309 310 311 311 312 312 312 313 312 312 312
322 322 322 322 319 319 317 316 315 315 312 306 303 303 302 303 301 300 295 295 297 296 298 297 296 295 296 296 295 294 295 298 300 302 303 305 307 308 309 310 311 311 311
321 321 322 321 319 318 318 315 314 313 312 313 307 302 304 299 296 294 301 297 293 294 296 297 296 295 295 293 292 291 294 296 298 299 300 301 303 304 306 307 307 308 310
318 319 320 320 320 318 316 315 313 312 312 311 308 302 301 298 297 296 294 297 296 294 294 294 293 294 293 292 290 291 292 293 296 297 298 299 301 302 304 305 306 307 307
314 316 315 314 313 312 311 310 309 308 307 306 302 300 297 294 295 296 295 294 291 291 289 290 291 291 291 289 290 290 291 292 294 294 295 296 298 299 300 302 304 305 305
299 301 301 300 301 301 301 300 298 297 295 294 292 291 290 290 290 290 289 289 287 286 287 286 288 288 288 288 289 290 289 290 293 295 297 298 298 299 300 300 301 301 302
295 294 294 294 294 294 294 293 292 291 291 291 290 290 289 288 287 288 287 287 286 284 286 286 285 288 288 289 288 288 288 289 291 293 293 294 295 296 297 298 299 301 302
292 291 291 292 292 292 292 291 290 289 287 287 286 285 285 285 285 285 285 285 285 283 283 287 287 287 288 287 288 288 288 288 288 289 289 290 291 292 293 294 295 296 297
288 288 288 288 288 288 288 287 287 286 285 284 285 284 284 285 284 284 285 285 284 284 281 283 285 286 286 286 286 287 287 286 286 287 288 288 289 289 290 291 291 292 293
286 286 286 286 286 286 286 285 284 283 282 280 280 280 280 282 281 282 282 282 282 283 282 280 282 282 283 284 281 278 281 280 281 281 283 284 285 285 286 288 289 289 290
284 285 284 283 283 283 283 283 282 280 278 278 278 278 278 278 278 279 280 280 279 280 280 278 277 280 278 278 275 276 276 276 276 278 279 280 281 283 284 283 283 283 284
281 281 281 281 280 279 278 278 278 277 276 276 276 276 277 277 277 277 277 277 277 276 276 274 274 273 273 274 273 272 272 273 273 274 276 277 278 277 278 278 279 279 280
279 279 279 279 280 279 277 275 275 274 275 275 276 276 276 277 278 277 276 276 275 274 273 272 271 270 270 270 269 270 270 270 271 272 273 272 272 271 272 274 275 276 278
278 277 277 277 277 279 280 278 275 273 273 273 273 275 275 275 276 277 276 276 275 273 271 269 268 267 267 268 269 269 268 266 265 271 268 267 269 269 270 271 274 276 277
275 276 276 277 276 277 279 278 276 274 272 272 271 271 273 274 275 274 274 273 273 274 273 270 267 267 266 267 268 267 266 266 265 267 265 263 267 267 269 270 272 273 273
273 273 274 276 277 278 279 278 276 273 272 271 270 270 270 272 274 274 271 269 269 270 270 269 268 267 268 269 268 267 266 264 263 264 265 260 265 264 267 267 269 271 272
272 272 273 273 274 276 279 277 275 272 271 271 270 269 269 271 274 275 270 267 267 268 270 270 269 269 270 269 268 266 261 260 258 260 263 261 263 262 263 263 266 269 270
272 272 271 272 273 273 278 278 274 272 270 269 269 268 270 272 273 273 269 265 265 267 264 263 262 263 264 264 266 263 262 258 257 257 263 260 260 260 257 262 264 264 265
Wind_Speed
8 6 6 5 5 5 6 6 6 6 6 7 7 8 8 7 6 4 3 3 6 9 15 17 16 17 15 12 10 9 9 8 7 7 8 8 8 8 8 7 8 8 8
7 7 7 6 5 5 5 6 6 6 6 7 7 7 8 6 6 5 4 4 5 8 11 15 18 19 18 14 14 12 12 11 10 10 10 10 10 10 10 10 10 10 11
8 8 7 6 6 5 6 5 5 5 5 5 7 6 6 7 6 7 5 4 4 6 8 14 14 19 18 16 16 15 14 13 13 13 12 12 12 12 12 12 12 12 13
10 8 7 7 7 6 6 5 6 5 5 6 5 5 5 5 6 6 5 4 4 4 5 7 12 15 18 18 16 15 16 16 15 14 14 14 15 15 14 14 15 15 15
10 9 7 7 8 6 5 6 4 4 5 5 6 5 4 5 6 4 6 7 6 5 4 6 5 3 10 16 15 15 16 17 16 16 16 16 16 16 17 17 17 17 17
12 9 7 8 8 7 5 6 6 4 3 6 4 4 4 5 5 7 8 7 7 8 7 7 5 3 4 10 17 17 18 18 18 16 17 18 18 19 19 19 20 19 19
12 12 8 9 9 10 10 8 6 7 4 5 3 1 4 7 8 8 8 8 9 9 9 7 5 4 4 8 11 15 18 20 21 19 19 20 20 21 21 21 22 22 22
13 12 11 10 11 8 10 10 8 4 4 6 4 1 2 3 6 9 8 9 11 7 9 9 9 8 7 5 7 13 17 19 20 21 22 22 22 22 23 23 23 24 24
14 13 12 10 10 9 9 11 11 11 7 6 7 3 2 6 1 2 8 8 10 8 8 7 9 8 8 7 8 9 14 16 19 21 23 23 23 23 24 25 25 26 26
13 13 13 12 10 8 8 9 9 10 7 8 3 9 5 1 4 4 2 3 5 7 8 6 7 8 9 8 8 9 12 15 18 20 21 22 23 24 25 26 27 28 28
11 11 11 11 10 8 9 10 9 11 9 7 8 3 8 4 0 2 8 2 1 3 5 6 6 6 6 5 3 5 12 15 17 18 20 21 23 24 25 27 27 29 30
6 7 8 8 8 7 8 8 9 11 10 8 3 2 1 2 3 5 4 5 2 1 1 3 3 3 4 3 3 8 8 8 14 16 18 20 22 24 26 27 28 29 30
2 4 3 4 3 4 5 5 4 5 4 3 5 4 6 6 4 3 1 1 1 2 2 5 4 3 5 4 6 9 12 12 13 15 17 18 21 21 24 26 28 30 31
9 12 12 11 11 11 9 9 8 7 8 8 11 9 6 6 6 5 3 1 1 1 2 3 4 5 5 4 7 13 9 15 18 20 22 23 24 24 26 26 27 29 30
11 14 17 15 14 14 14 14 11 11 12 11 11 11 8 8 7 7 6 5 3 1 1 4 2 5 7 7 8 7 8 14 19 20 21 22 24 24 25 27 28 30 33
15 19 18 19 15 14 17 15 12 14 15 11 10 13 10 8 8 6 5 3 4 3 2 3 2 5 8 7 9 11 10 14 15 18 19 21 22 24 26 27 28 30 31
15 21 17 15 15 17 16 16 17 15 17 14 12 12 12 10 8 6 5 5 5 4 2 2 4 7 9 11 10 10 10 11 9 18 21 23 24 25 27 28 29 31 32
17 17 17 18 18 18 17 18 17 15 16 15 13 14 13 9 11 10 7 9 8 7 6 8 8 8 9 10 10 12 9 10 11 17 24 26 28 28 28 29 29 31 31
19 18 19 20 18 18 17 17 17 16 16 15 15 15 14 13 11 9 8 8 7 6 6 6 7 7 8 8 11 10 11 12 11 20 23 26 25 24 24 30 34 35 35
20 19 20 20 19 18 17 16 15 15 15 14 14 14 13 13 12 11 9 9 8 8 8 7 8 8 9 10 10 11 11 11 12 13 18 18 19 25 33 30 31 32 32
19 18 18 18 17 17 13 14 15 14 12 12 11 11 13 16 22 18 9 10 11 9 8 9 9 10 10 11 12 11 12 12 13 13 11 10 15 14 14 22 24 27 29
18 19 18 18 17 13 26 25 16 12 12 12 12 11 11 15 17 20 19 18 14 12 11 9 10 11 14 13 11 11 12 13 13 5 13 15 12 13 13 13 23 30 32
16 17 17 16 17 16 26 24 22 11 11 12 13 13 12 11 14 14 16 17 14 16 13 10 12 12 15 15 15 15 15 14 14 13 15 17 12 14 12 13 27 33 40
15 14 15 16 16 17 26 23 20 13 12 13 13 14 13 14 15 15 13 13 12 11 10 10 12 13 14 15 14 14 15 16 14 13 12 15 12 13 13 14 33 34 33
13 13 13 15 15 16 26 25 16 12 12 11 11 12 15 16 23 24 14 13 13 12 11 19 20 23 22 22 18 11 9 11 13 13 13 10 11 16 16 16 13 24 30
13 10 13 14 15 14 24 24 17 9 12 10 10 11 17 20 24 23 14 13 13 14 13 13 13 16 17 16 21 13 10 12 12 11 5 9 16 13 10 11 12 15 13
Wind_Direction
160 160 179 176 184 169 169 161 162 168 169 172 176 184 185 192 192 199 209 237 258 238 219 205 201 197 194 198 209 216 214 212 215 219 221 225 229 232 231 231 238 245 245
160 167 181 178 187 183 172 171 171 173 184 181 187 193 195 196 201 208 219 232 274 258 246 250 220 207 204 199 194 218 223 222 221 229 235 237 239 243 245 244 246 251 254
163 164 178 183 189 189 174 164 162 162 181 195 202 202 199 203 206 212 221 234 253 278 278 258 258 236 218 208 200 206 223 234 231 231 235 242 245 246 247 249 250 252 254
156 161 181 188 186 188 177 178 175 179 189 197 198 206 214 211 214 219 226 234 241 255 270 290 272 260 238 224 210 217 224 227 237 242 241 245 250 253 254 254 255 253 255
167 172 190 183 181 191 184 180 182 183 189 199 205 197 207 217 223 223 234 237 238 245 250 261 320 289 231 225 222 228 239 236 238 240 248 248 253 259 261 260 259 259 257
174 177 188 182 180 193 190 184 181 180 197 200 196 210 200 223 224 225 230 234 232 234 235 237 247 253 279 233 239 245 252 254 248 241 250 254 255 256 259 260 261 260 260
181 182 187 188 184 193 199 188 176 185 188 172 144 207 245 229 226 228 231 232 230 229 236 238 237 242 247 256 247 252 260 265 267 264 254 253 254 255 258 260 261 262 260
185 189 190 191 189 186 188 186 184 164 183 175 182 86 241 229 239 230 224 229 236 227 234 233 236 239 240 240 240 250 260 269 275 274 268 263 260 258 259 260 262 264 264
187 189 193 192 190 192 199 195 195 192 193 193 208 179 146 229 104 171 229 231 232 226 237 236 238 242 244 248 258 266 271 271 271 271 273 274 274 272 269 266 264 264 264
192 193 191 193 184 191 196 200 198 204 189 201 202 241 251 172 212 273 225 221 221 240 241 231 236 232 235 239 236 242 255 265 271 275 278 280 279 276 276 275 274 271 268
192 193 196 196 194 192 204 202 199 209 207 210 218 156 223 217 104 205 266 238 276 232 246 238 238 262 249 245 239 236 260 276 277 276 275 275 274 274 274 274 273 274 273
186 184 196 201 209 197 197 203 215 209 214 222 213 183 221 152 205 218 239 256 287 6 331 298 320 308 320 311 352 314 306 315 304 298 294 291 285 282 280 277 277 275 274
179 154 92 77 62 61 53 49 43 26 358 40 44 46 46 21 350 61 53 76 348 16 337 51 36 38 55 20 24 13 340 340 318 309 304 299 293 291 288 286 283 279 277
55 66 68 54 47 56 56 64 61 56 57 58 63 69 79 59 43 13 55 334 16 349 319 60 30 54 33 359 345 343 327 327 319 311 304 301 300 296 292 289 288 285 283
65 61 64 64 52 56 64 69 58 59 62 53 57 58 55 51 48 32 30 37 338 340 288 43 5 12 352 336 324 321 316 316 317 313 309 310 307 303 301 298 295 291 289
56 63 58 57 56 59 58 63 68 61 64 55 53 57 51 49 46 45 30 42 43 25 323 4 341 327 321 315 316 314 304 296 297 302 307 304 300 297 295 292 290 288 286
52 56 60 65 62 63 63 67 62 61 65 64 55 60 54 46 50 44 40 36 38 32 334 292 291 318 319 317 322 322 310 309 306 310 310 305 301 299 296 295 294 293 291
58 60 63 60 55 59 58 62 62 56 59 58 52 52 47 41 37 27 23 19 14 6 340 322 323 332 334 343 353 333 324 325 322 314 313 311 306 301 302 300 299 296 293
59 60 62 62 58 56 58 57 61 60 58 55 49 46 39 38 32 24 21 16 7 357 355 333 324 328 334 333 336 323 322 316 313 313 309 304 306 305 318 313 303 297 296
65 60 57 59 59 58 56 58 61 59 57 53 50 45 37 35 31 22 17 17 3 3 357 345 330 331 328 338 328 326 322 319 316 310 301 298 316 311 306 300 298 297 297
62 61 62 62 62 64 62 58 57 54 52 54 50 46 38 31 30 25 15 9 4 -0 352 344 332 328 331 337 333 327 312 315 312 298 312 314 314 302 297 296 296 297 296
62 65 60 59 60 61 63 64 62 58 51 46 37 31 33 22 18 19 13 6 6 355 355 348 335 331 329 324 320 319 314 315 317 301 326 296 294 286 291 290 287 300 297
57 57 61 61 60 56 56 55 55 54 53 45 39 27 21 15 5 2 5 358 357 353 357 352 331 325 317 318 317 314 310 304 299 303 307 292 297 287 291 298 295 298 295
57 54 50 53 57 54 50 48 47 47 45 42 37 27 13 7 355 356 356 348 342 338 341 345 325 316 307 313 312 307 309 305 292 291 299 288 306 297 301 300 292 291 290
60 55 52 49 44 47 47 44 36 35 32 30 28 22 9 360 353 353 355 341 334 329 345 331 325 319 320 322 316 318 307 306 302 302 299 274 298 308 299 292 282 290 294
59 56 54 43 38 34 37 36 42 25 21 13 13 12 3 354 354 352 354 344 328 331 342 336 328 325 325 318 319 314 310 298 301 303 333 317 303 315 301 296 292 291 281